Hourly Weather Roundup
Issued by NWS Central Illinois

Home | Current Version | Previous Version | Text Only | Print | Product List | Glossary On
Versions: 1 2 3 4 5 6 7 8 9 10 11 12 13 14 15 16 17 18 19 20 21 22 23 24 25 26 27 28 29 30 31 32 33 34 35 36 37 38 39 40 41 42 43 44 45 46 47 48 49 50
000
NZUS43 KILX 262010
HWRILX

AREA WEATHER ROUNDUP
NATIONAL WEATHER SERVICE, LINCOLN IL
300 PM CDT FRI AUG 26 2016


CITY           SKY/WX    TMP DP  RH WIND       PRES   REMARKS
BLOOMINGTON    CLOUDY    80  71  74 E9        30.11S HX  84
CHAMPAIGN      MOSUNNY   84  72  67 E5        30.09F HX  89
DANVILLE       CLOUDY    82  74  75 CALM      30.07S HX  88
DECATUR        CLOUDY    85  74  69 E5        30.07F HX  92
EFFINGHAM      CLOUDY    74  74 100 S9        30.10R THUNDER
FLORA          TSTM      74  71  88 N10       30.09F
GALESBURG      CLOUDY    77  67  69 E6        30.09F
JACKSONVILLE   CLOUDY    81  71  73 SE6       30.07F HX  84
LACON          PTSUNNY   78  65  65 E5        30.08F
LAWRENCEVILLE  PTSUNNY   91  73  55 S6        30.06S HX  99
LITCHFIELD     PTSUNNY   91  76  60 NE5       30.06F HX 102
$$


CITY           SKY/WX    TMP DP  RH WIND       PRES   REMARKS
LINCOLN        CLOUDY    82  74  77 E7        30.07F HX  88
MACOMB         CLOUDY    77  66  68 E7        30.10F
MATTOON        CLOUDY    79  69  71 E7        30.07S HX  81
MT CARMEL AP   CLOUDY    91  74  57 S6        30.05S HX  99
OLNEY-NOBLE AP CLOUDY    75  70  83 NW14G26   30.08R THUNDER
PARIS          TSTM      70  68  95 S14G20    30.11R
PEORIA         CLOUDY    79  71  76 E7        30.09F HX  82
PONTIAC        CLOUDY    79  70  73 E6        30.11F HX  82
RANTOUL        MOSUNNY   85  74  71 NE5       30.09F HX  92
ROBINSON       CLOUDY    87  76  70 SW5       30.07S HX  96
SPRINGFIELD    CLOUDY    83  72  69 NE7       30.07F HX  88
TAYLORVILLE    CLOUDY    85  75  73 E3        30.06F HX  93
$$

...REGIONAL REPORTS...


CITY           SKY/WX    TMP DP  RH WIND       PRES   REMARKS
CHICAGO O`HARE PTSUNNY   79  60  52 NE10      30.12F HX  80
KANKAKEE       CLOUDY    80  68  67 E5        30.11F HX  82
MOLINE         CLOUDY    78  64  61 E8        30.10F HX  80
MOUNT STERLING MOSUNNY   78  70  77 E5        30.07F HX  80
MOUNT VERNON   CLOUDY    81  73  78 S6        30.07F HX  85
PITTSFIELD     CLOUDY    81  73  75 E3        30.08F HX  86
QUINCY         MOSUNNY   77  71  82 E6        30.07F
ROCKFORD       CLOUDY    77  61  57 E6        30.14F
$$


CITY           SKY/WX    TMP DP  RH WIND       PRES   REMARKS
BURLINGTON     CLOUDY    79  66  64 E8        30.09F HX  81
CEDAR RAPIDS   CLOUDY    75  64  68 E6        30.12F
DES MOINES     CLOUDY    72  64  76 E8        30.11R
KIRKSVILLE     CLOUDY    76  69  79 E7        30.08F
OTTUMWA        PTSUNNY   76  64  66 E8        30.09F
ST LOUIS       CLOUDY    87  73  62 NW7       30.05F HX  94
$$


CITY           SKY/WX    TMP DP  RH WIND       PRES   REMARKS
TERRE HAUTE    CLOUDY    78  65  63 VRB3      30.07S THUNDER HX  80
EVANSVILLE     MOSUNNY   92  72  51 E6        30.05F HX  99
INDIANAPOLIS   PTSUNNY   90  73  57 CALM      30.06F HX  98
LAFAYETTE      PTSUNNY   82  72  71 N6        30.07F HX  87
MADISON        CLOUDY    72  57  59 CALM      30.15F
MILWAUKEE      CLOUDY    75  57  53 SE6       30.15F
$$





USA.gov is the U.S. government's official web portal to all federal, state and local government web resources and services.